Hourly Weather Przylekow

Today, 15 July, Wednesday

Time Temperature Precipitation Wind Pressure Humidity
00:00 +12°C° 0 mm 1 mps 715 mmHg 90%
01:00 +12°C° 0 mm 1 mps 715 mmHg 91%
02:00 +11°C° 0 mm 1 mps 715 mmHg 91%
03:00 +11°C° 0 mm 1 mps 714 mmHg 91%
04:00 +11°C° 0 mm 1 mps 714 mmHg 91%
05:00 +13°C° 0 mm 1 mps 714 mmHg 86%
06:00 +15°C° 0 mm 1 mps 715 mmHg 81%
07:00 +18°C° 0 mm 1 mps 715 mmHg 76%
08:00 +19°C° 0 mm 1 mps 715 mmHg 68%
09:00 +21°C° 0 mm 1 mps 715 mmHg 59%
10:00 +23°C° 0 mm 1 mps 715 mmHg 51%
11:00 +23°C° 0 mm 1 mps 715 mmHg 50%
12:00 +24°C° 0 mm 2 mps 715 mmHg 49%
13:00 +24°C° 0 mm 2 mps 715 mmHg 49%
14:00 +24°C° 0.2 mm 2 mps 714 mmHg 53%
15:00 +23°C° 0.2 mm 2 mps 714 mmHg 58%
16:00 +23°C° 0.2 mm 1 mps 714 mmHg 62%
17:00 +21°C° 0.3 mm 1 mps 713 mmHg 70%
18:00 +20°C° 0.3 mm 1 mps 713 mmHg 77%
19:00 +18°C° 0.3 mm 1 mps 713 mmHg 84%
20:00 +16°C° 0 mm 1 mps 713 mmHg 86%
21:00 +15°C° 0 mm 2 mps 713 mmHg 88%
22:00 +14°C° 0 mm 2 mps 713 mmHg 90%
23:00 +14°C° 0 mm 2 mps 713 mmHg 91%

Tomorrow, 16 July, Thursday

Time Temperature Precipitation Wind Pressure Humidity
00:00 +14°C° 0 mm 2 mps 713 mmHg 91%
01:00 +14°C° 0 mm 2 mps 713 mmHg 91%
02:00 +14°C° 0.1 mm 1 mps 713 mmHg 92%
03:00 +14°C° 0.1 mm 1 mps 713 mmHg 93%
04:00 +14°C° 0.1 mm 1 mps 713 mmHg 94%
05:00 +14°C° 0.7 mm 1 mps 713 mmHg 95%
06:00 +14°C° 0.7 mm 1 mps 714 mmHg 95%
07:00 +15°C° 0.7 mm 1 mps 714 mmHg 96%
08:00 +15°C° 0.4 mm 1 mps 714 mmHg 93%
09:00 +16°C° 0.4 mm 1 mps 714 mmHg 89%
10:00 +16°C° 0.4 mm 1 mps 714 mmHg 86%
11:00 +18°C° 0.4 mm 1 mps 714 mmHg 82%
12:00 +19°C° 0.4 mm 1 mps 714 mmHg 77%
13:00 +20°C° 0.4 mm 1 mps 714 mmHg 73%
14:00 +20°C° 1.2 mm 1 mps 714 mmHg 77%
15:00 +18°C° 1.2 mm 2 mps 714 mmHg 80%
16:00 +18°C° 1.2 mm 2 mps 713 mmHg 83%
17:00 +18°C° 0.6 mm 1 mps 713 mmHg 85%
18:00 +16°C° 0.6 mm 1 mps 713 mmHg 88%
19:00 +15°C° 0.6 mm 1 mps 713 mmHg 90%
20:00 +14°C° 0 mm 1 mps 713 mmHg 91%
21:00 +13°C° 0 mm 1 mps 713 mmHg 92%
22:00 +12°C° 0 mm 1 mps 713 mmHg 92%
23:00 +12°C° 0 mm 1 mps 713 mmHg 92%

Day after tomorrow, 17 July, Friday

Time Temperature Precipitation Wind Pressure Humidity
00:00 +12°C° 0 mm 1 mps 714 mmHg 93%
01:00 +12°C° 0 mm 1 mps 714 mmHg 93%
02:00 +12°C° 0 mm 1 mps 713 mmHg 93%
03:00 +10°C° 0 mm 0 mps 713 mmHg 93%
04:00 +9°C° 0 mm 0 mps 713 mmHg 94%
05:00 +11°C° 0.1 mm 0 mps 713 mmHg 91%
06:00 +13°C° 0.1 mm 0 mps 714 mmHg 88%
07:00 +14°C° 0.1 mm 0 mps 714 mmHg 85%
08:00 +16°C° 0.4 mm 1 mps 714 mmHg 79%
09:00 +18°C° 0.4 mm 1 mps 714 mmHg 74%
10:00 +19°C° 0.4 mm 1 mps 714 mmHg 68%
11:00 +19°C° 0.4 mm 1 mps 714 mmHg 67%
12:00 +20°C° 0.4 mm 1 mps 714 mmHg 66%
13:00 +20°C° 0.4 mm 1 mps 714 mmHg 64%
14:00 +20°C° 0.7 mm 1 mps 714 mmHg 67%
15:00 +20°C° 0.7 mm 1 mps 714 mmHg 69%
16:00 +19°C° 0.7 mm 1 mps 714 mmHg 72%
17:00 +18°C° 0.5 mm 1 mps 714 mmHg 77%
18:00 +15°C° 0.5 mm 0 mps 714 mmHg 81%
19:00 +14°C° 0.5 mm 0 mps 713 mmHg 86%
20:00 +13°C° 0.4 mm 0 mps 714 mmHg 88%
21:00 +12°C° 0.4 mm 0 mps 714 mmHg 89%
22:00 +11°C° 0.4 mm 0 mps 714 mmHg 91%
23:00 +11°C° 0.4 mm 0 mps 714 mmHg 92%

18 July, Saturday

Time Temperature Precipitation Wind Pressure Humidity
00:00 +11°C° 0.4 mm 0 mps 714 mmHg 93%
01:00 +11°C° 0.4 mm 0 mps 714 mmHg 95%
02:00 +11°C° 0.3 mm 0 mps 714 mmHg 95%
03:00 +11°C° 0.3 mm 0 mps 714 mmHg 95%
04:00 +10°C° 0.3 mm 0 mps 714 mmHg 96%
05:00 +12°C° 0.2 mm 1 mps 714 mmHg 95%
06:00 +13°C° 0.2 mm 1 mps 714 mmHg 93%
07:00 +14°C° 0.2 mm 1 mps 715 mmHg 92%
08:00 +15°C° 0.5 mm 1 mps 715 mmHg 89%
09:00 +16°C° 0.5 mm 1 mps 715 mmHg 86%
10:00 +18°C° 0.5 mm 1 mps 715 mmHg 83%
11:00 +18°C° 0.7 mm 2 mps 715 mmHg 79%
12:00 +19°C° 0.7 mm 2 mps 715 mmHg 75%
13:00 +19°C° 0.7 mm 2 mps 715 mmHg 71%
14:00 +19°C° 0.8 mm 2 mps 715 mmHg 74%
15:00 +19°C° 0.8 mm 2 mps 714 mmHg 77%
16:00 +18°C° 0.8 mm 2 mps 714 mmHg 80%
17:00 +18°C° 0.3 mm 1 mps 714 mmHg 83%
18:00 +16°C° 0.3 mm 1 mps 714 mmHg 86%
19:00 +14°C° 0.3 mm 0 mps 714 mmHg 89%
20:00 +13°C° 0 mm 0 mps 714 mmHg 90%
21:00 +12°C° 0 mm 0 mps 714 mmHg 90%
22:00 +11°C° 0 mm 0 mps 714 mmHg 91%
23:00 +12°C° 0 mm 1 mps 714 mmHg 91%

19 July, Sunday

Time Temperature Precipitation Wind Pressure Humidity
00:00 +12°C° 0 mm 1 mps 714 mmHg 91%
01:00 +12°C° 0 mm 1 mps 714 mmHg 91%
02:00 +12°C° 0 mm 1 mps 714 mmHg 91%
03:00 +12°C° 0 mm 1 mps 714 mmHg 91%
04:00 +12°C° 0 mm 1 mps 714 mmHg 90%
05:00 +13°C° 0 mm 1 mps 714 mmHg 88%
06:00 +14°C° 0 mm 1 mps 715 mmHg 86%
07:00 +15°C° 0 mm 1 mps 715 mmHg 84%
08:00 +18°C° 0.2 mm 1 mps 715 mmHg 78%
09:00 +20°C° 0.2 mm 1 mps 715 mmHg 72%
10:00 +21°C° 0.2 mm 2 mps 715 mmHg 66%
11:00 +21°C° 0.3 mm 2 mps 715 mmHg 64%
12:00 +23°C° 0.3 mm 2 mps 715 mmHg 62%
13:00 +24°C° 0.3 mm 3 mps 715 mmHg 59%
14:00 +24°C° 0.3 mm 3 mps 715 mmHg 61%
15:00 +24°C° 0.3 mm 3 mps 714 mmHg 62%
16:00 +24°C° 0.3 mm 3 mps 714 mmHg 64%
17:00 +21°C° 0.3 mm 3 mps 714 mmHg 72%
18:00 +20°C° 0.3 mm 2 mps 714 mmHg 79%
19:00 +19°C° 0.3 mm 1 mps 714 mmHg 87%
20:00 +18°C° 0.1 mm 1 mps 714 mmHg 89%
21:00 +16°C° 0.1 mm 1 mps 714 mmHg 91%
22:00 +15°C° 0.1 mm 1 mps 714 mmHg 93%
23:00 +15°C° 0 mm 1 mps 714 mmHg 93%

20 July, Monday

Time Temperature Precipitation Wind Pressure Humidity
00:00 +15°C° 0 mm 1 mps 714 mmHg 93%
01:00 +14°C° 0 mm 2 mps 714 mmHg 94%
02:00 +14°C° 0 mm 1 mps 714 mmHg 93%
03:00 +14°C° 0 mm 1 mps 714 mmHg 93%
04:00 +14°C° 0 mm 1 mps 714 mmHg 93%
05:00 +15°C° 0 mm 1 mps 715 mmHg 90%
06:00 +18°C° 0 mm 1 mps 715 mmHg 87%
07:00 +20°C° 0 mm 1 mps 715 mmHg 84%
08:00 +21°C° 0.2 mm 1 mps 715 mmHg 78%
09:00 +22°C° 0.2 mm 1 mps 716 mmHg 72%
10:00 +24°C° 0.2 mm 1 mps 716 mmHg 67%
11:00 +24°C° 0.8 mm 2 mps 716 mmHg 69%
12:00 +23°C° 0.8 mm 2 mps 716 mmHg 71%
13:00 +23°C° 0.8 mm 2 mps 716 mmHg 73%
14:00 +23°C° 0.9 mm 2 mps 716 mmHg 76%
15:00 +22°C° 0.9 mm 1 mps 716 mmHg 79%
16:00 +22°C° 0.9 mm 1 mps 715 mmHg 82%
17:00 +21°C° 1 mm 1 mps 715 mmHg 84%
18:00 +20°C° 1 mm 1 mps 715 mmHg 87%
19:00 +17°C° 1 mm 0 mps 715 mmHg 90%
20:00 +16°C° 0.4 mm 0 mps 715 mmHg 91%
21:00 +15°C° 0.4 mm 0 mps 716 mmHg 92%
22:00 +14°C° 0.4 mm 0 mps 716 mmHg 93%
23:00 +14°C° 0.4 mm 0 mps 716 mmHg 94%
Show more